Location: Krakow
(50.0830°N, 19.9170°E)
Time: 13:28:56
(UTC+02:00)

Tiros 1 - Pass Details

Date: 09 February 2023
Orbit: 627 x 662 km, 48.4° (Epoch: 26 March)

Event Time Altitude Azimuth Distance (km) Brightness Sun altitude
Rises 00:44:04 0° 266° (W) 2,910 - -53.3°
Reaches altitude 10° 00:46:22 10° 264° (W) 2,005 - -53.2°
Maximum altitude 00:50:58 73° 180° (S) 662 - -52.9°
Drops below altitude 10° 00:55:36 10° 96° (E) 2,020 - -52.6°
Sets 00:57:57 0° 95° (E) 2,934 - -52.5°
